Location: Alulod
(14.2076°N, 120.8898°E)
Time: 13:05:27
(UTC+00:00)

USA 238 DEB - Pass Details

Date: 19 March 2026
Orbit: 883 x 1328 km, 63.4° (Epoch: 10 January)

Event Time Altitude Azimuth Distance (km) Brightness Sun altitude
Rises 18:41:22 0° 8° (N) 4,159 7.0 -48.7°
Reaches altitude 10° 18:46:47 10° 38° (NE) 3,278 6.6 -47.5°
Maximum altitude 18:49:19 12° 57° (ENE) 3,182 6.6 -46.9°
Drops below altitude 10° 18:51:51 10° 76° (ENE) 3,331 6.8 -46.3°
Sets 18:57:26 0° 106° (ESE) 4,326 7.5 -45.0°
